Voltar ao catálogo

DELTA 1 DEB

AtivoSSO
NORAD 7140·DEBRIS·🇺🇸 United States

Lançado Nov 6, 1973 de Vandenberg Space Force Base

Loading…

Próximas Passagens (próximas 24 horas)

TLE

AtualizadoSource: Space-Track

Época: Sep 14, 2026, 11:22 UTC

1 07140U 73086DE  26257.47418727 -.00000018  00000-0  22479-3 0  9995
2 07140 102.4341 247.8827 0019803 198.8341 315.0790 12.36339487383681

Acompanhe DELTA 1 DEB em tempo real com AllMySat

Download on the App Store